Flag for Andorra Weather past 2 weeks in Andorra La Vella, Andorra

48 °F


Feels Like: 42 °F
Forecast: 26 / 39 °F
Wind: 16 mph from Northwest

Location: Carcassonne Airport

Current Time: Nov 26, 2015 at 10:19:49 AM

Latest Report: Nov 26, 2015 at 10:00 AM

Visibility: N/A

Pressure: 30.07 "Hg (26.54 "Hg at 1031m altitude)

Humidity: 76%

Dew point: 41 °F

Location of Andorra La VellaLocation

Historic Weather in Andorra La Vella — Graph


Andorra La Vella temperature yesterday

Maximum temperature yesterday: 54 °F (at 1:00 PM)
Minimum temperature yesterday: 41 °F (at 12:00 AM)
Average temperature yesterday: 49 °F

Past Weeks' High & Low Weather Summary

High72 °F (Nov 20, 2:00 PM)100% (Nov 11, 11:30 PM)30.54 "Hg (Nov 11, 11:30 PM)
Low32 °F (Nov 23, 6:30 AM)31% (Nov 20, 2:00 PM)29.68 "Hg (Nov 21, 3:30 AM)
Average52 °F77%30.21 "Hg
* Reported Nov 11 9:00 AM — Nov 26 9:00 AM, Andorra La Vella, Weather by CustomWeather, © 2015

Note: Actual official high and low records may vary slightly from our data, if they occured in-between our weather recording intervals... More about our weather records


Andorra La Vella weather history for previous 24 hours

Time TempWeatherWind HumidityBarometerVisibility
9:00 AM
Thu, Nov 26
46 °FMostly cloudy.16 mph82%30.04 "HgN/A
8:30 AM48 °FMostly cloudy.16 mph76%30.01 "HgN/A
7:30 AM48 °FLight rain. Mostly cloudy.20 mph82%30.01 "HgN/A
7:00 AM50 °FOvercast.20 mph76%29.98 "HgN/A
6:00 AM50 °FOvercast.17 mph76%29.98 "HgN/A
5:30 AM50 °FPassing clouds.18 mph82%29.98 "HgN/A
4:30 AM50 °FPartly cloudy.17 mph88%29.95 "HgN/A
4:00 AM50 °FDrizzle. Mostly cloudy.18 mph88%29.95 "HgN/A
3:30 AM50 °FMostly cloudy.17 mph88%29.95 "HgN/A
3:00 AM52 °FMostly cloudy.20 mph82%29.95 "HgN/A
2:30 AM52 °FMostly cloudy.20 mph82%29.95 "HgN/A
2:00 AM52 °FDrizzle. Mostly cloudy.16 mph82%29.95 "HgN/A
1:30 AM52 °FMostly cloudy.17 mph82%29.95 "HgN/A
1:00 AM52 °FMostly cloudy.17 mph77%29.92 "HgN/A
12:00 AM50 °FMostly cloudy.18 mph88%29.92 "HgN/A
11:30 PM
Wed, Nov 25
52 °FOvercast.20 mph88%29.92 "HgN/A
11:00 PM52 °FMostly cloudy.16 mph88%29.92 "HgN/A
10:30 PM52 °FMostly cloudy.14 mph82%29.92 "HgN/A
9:30 PM52 °FMostly cloudy.17 mph82%29.92 "HgN/A
9:00 PM52 °FPassing clouds.20 mph82%29.92 "HgN/A
8:30 PM52 °FMostly cloudy.21 mph88%29.92 "HgN/A
8:00 PM52 °FMostly cloudy.21 mph88%29.92 "HgN/A
7:30 PM50 °FLight rain. Mostly cloudy.18 mph94%29.92 "HgN/A
7:00 PM50 °FLight rain. Passing clouds.16 mph94%29.92 "Hg4 mi
6:30 PM52 °FMostly cloudy.20 mph88%29.92 "HgN/A
6:00 PM52 °FOvercast.20 mph88%29.92 "HgN/A
5:30 PM52 °FOvercast.17 mph82%29.92 "HgN/A
5:00 PM52 °FOvercast.17 mph88%29.92 "HgN/A
4:30 PM52 °FBroken clouds.17 mph88%29.92 "HgN/A
4:00 PM52 °FMore clouds than sun.17 mph88%29.92 "HgN/A
3:30 PM52 °FDrizzle. Mostly cloudy.17 mph88%29.92 "HgN/A
3:00 PM52 °FBroken clouds.21 mph88%29.95 "HgN/A
2:30 PM52 °FMore clouds than sun.20 mph88%29.95 "HgN/A
2:00 PM52 °FMore clouds than sun.20 mph88%29.95 "HgN/A
1:30 PM54 °FPartly sunny.21 mph82%29.95 "HgN/A
1:00 PM54 °FPartly sunny.18 mph88%29.95 "HgN/A
12:30 PM52 °FDrizzle. Partly sunny.18 mph94%29.98 "HgN/A
12:00 PM52 °FLight rain. Mostly cloudy.16 mph94%29.98 "HgN/A
11:30 AM52 °FLight rain. Partly sunny.16 mph94%29.98 "HgN/A
11:00 AM52 °FLight rain. Mostly cloudy.16 mph94%30.01 "HgN/A
10:30 AM50 °FLight rain. Mostly cloudy.13 mph94%30.01 "HgN/A
10:00 AM50 °FLight rain. Partly sunny.15 mph94%30.01 "HgN/A
Weather by CustomWeather, © 2015

See weather overviewHow to use our weather pages